User: anonymous   Login
Location: Allos
(44.2333°N, 6.6333°E)
Time: 13:14:47
(UTC+00:00)
Language:

Cosmos 1238 Rocket - Orbit

View from above orbital plane
View from above orbital plane
View from above satellite
View from above satellite

Ground track
Ground track

The orbit data is extracted from the following two-line orbital elements,

1 12139U 81003B   21061.57627513  .00001912  00000-0  87052-4 0  9993
2 12139  82.9470  99.9006 0460221 122.3315 242.3321 14.58054395 44068
Epoch (UTC): 02 March 2021 13:49:50
Eccentricity: 0.0460221
inclination: 82.9470°
perigee height: 374 km
apogee height: 1025 km
right ascension of ascending node: 99.9006°
argument of perigee: 122.3315°
revolutions per day: 14.58054395
mean anomaly at epoch: 242.3321°
orbit number at epoch: 4406

The dashed part of the orbit path shows where the satellite is in the earth's shadow,  

DLR